QPF
0.00 0.00 0.00 0.00 0.00 0.00 0.00 0.00 0.00 0.00 0.01 0.00 0.01 0.01 0.01 0.01 0.02 0.04 0.04 0.03 0.02 0.03 0.04 0.03 0.02 0.03 0.05 0.18 0.18 0.09 0.11 0.12 0.10 0.03 0.06 0.11 0.16 0.19 0.19 0.21 0.17 0.08 0.04
0.00 0.00 0.00 0.00 0.00 0.00 0.00 0.00 0.00 0.00 0.00 0.01 0.00 0.01 0.02 0.03 0.04 0.10 0.13 0.07 0.11 0.07 0.10 0.09 0.10 0.07 0.08 0.04 0.11 0.22 0.06 0.06 0.12 0.07 0.10 0.13 0.19 0.44 0.46 0.41 0.26 0.21 0.11
0.00 0.00 0.00 0.00 0.00 0.00 0.00 0.00 0.00 0.00 0.00 0.00 0.01 0.02 0.04 0.05 0.08 0.20 0.24 0.09 0.22 0.13 0.20 0.20 0.13 0.09 0.04 0.09 0.01 0.01 0.01 0.01 0.05 0.08 0.10 0.19 0.25 0.43 0.71 0.89 0.90 0.64 0.34
0.00 0.00 0.00 0.00 0.00 0.00 0.00 0.00 0.00 0.00 0.00 0.00 0.00 0.01 0.04 0.03 0.05 0.08 0.14 0.12 0.12 0.13 0.08 0.07 0.05 0.03 0.01 0.01 0.00 0.00 0.00 0.00 0.00 0.02 0.10 0.11 0.13 0.22 0.34 0.62 1.06 1.04 0.68
0.00 0.00 0.00 0.00 0.00 0.00 0.00 0.00 0.00 0.00 0.00 0.00 0.00 0.00 0.01 0.01 0.01 0.04 0.05 0.04 0.04 0.02 0.01 0.01 0.01 0.01 0.00 0.00 0.00 0.00 0.00 0.00 0.00 0.00 0.01 0.06 0.08 0.07 0.12 0.32 0.83 1.01 0.88
0.00 0.00 0.00 0.00 0.00 0.00 0.00 0.00 0.00 0.00 0.00 0.00 0.00 0.00 0.00 0.00 0.00 0.00 0.00 0.01 0.01 0.01 0.01 0.01 0.01 0.01 0.01 0.01 0.00 0.00 0.00 0.00 0.01 0.02 0.02 0.02 0.02 0.03 0.05 0.10 0.36 0.60 0.69
0.00 0.00 0.00 0.00 0.00 0.00 0.00 0.00 0.00 0.00 0.00 0.00 0.00 0.00 0.00 0.00 0.00 0.00 0.00 0.00 0.00 0.00 0.00 0.00 0.00 0.01 0.01 0.02 0.03 0.01 0.01 0.02 0.04 0.08 0.07 0.05 0.09 0.10 0.06 0.05 0.13 0.32 0.54
0.00 0.00 0.00 0.00 0.00 0.00 0.00 0.00 0.00 0.00 0.00 0.00 0.00 0.00 0.00 0.00 0.00 0.00 0.00 0.00 0.00 0.00 0.00 0.00 0.00 0.00 0.00 0.00 0.00 0.01 0.04 0.09 0.11 0.16 0.23 0.25 0.18 0.16 0.16 0.14 0.11 0.13 0.16
0.00 0.00 0.00 0.00 0.00 0.00 0.00 0.00 0.00 0.00 0.00 0.00 0.00 0.00 0.00 0.00 0.00 0.00 0.00 0.00 0.00 0.00 0.00 0.00 0.00 0.00 0.01 0.01 0.01 0.00 0.01 0.03 0.07 0.09 0.11 0.14 0.19 0.16 0.09 0.09 0.14 0.14 0.14
0.00 0.00 0.00 0.00 0.00 0.00 0.00 0.00 0.00 0.00 0.00 0.00 0.00 0.00 0.00 0.00 0.00 0.00 0.00 0.00 0.00 0.00 0.00 0.00 0.00 0.00 0.00 0.00 0.01 0.01 0.02 0.02 0.02 0.02 0.03 0.02 0.02 0.02 0.02 0.02 0.04 0.06 0.10
0.00 0.00 0.00 0.00 0.00 0.00 0.00 0.00 0.00 0.00 0.00 0.00 0.01 0.00 0.00 0.00 0.00 0.00 0.00 0.00 0.00 0.00 0.00 0.00 0.00 0.00 0.00 0.00 0.00 0.01 0.01 0.01 0.00 0.00 0.01 0.02 0.01 0.01 0.01 0.00 0.00 0.01 0.00
0.00 0.00 0.00 0.00 0.00 0.00 0.00 0.00 0.00 0.00 0.00 0.00 0.00 0.00 0.00 0.00 0.00 0.00 0.00 0.00 0.00 0.00 0.00 0.00 0.00 0.00 0.00 0.00 0.00 0.00 0.00 0.00 0.00 0.00 0.00 0.00 0.00 0.00 0.00 0.00 0.00 0.00 0.00
0.00 0.00 0.00 0.00 0.00 0.00 0.00 0.00 0.00 0.00 0.00 0.00 0.00 0.00 0.00 0.00 0.00 0.00 0.00 0.00 0.00 0.00 0.00 0.00 0.00 0.00 0.00 0.00 0.00 0.00 0.00 0.00 0.00 0.00 0.00 0.00 0.00 0.00 0.00 0.00 0.00 0.00 0.00
0.00 0.00 0.00 0.00 0.00 0.00 0.00 0.00 0.00 0.00 0.00 0.00 0.00 0.00 0.00 0.00 0.00 0.00 0.00 0.00 0.00 0.00 0.01 0.00 0.00 0.00 0.00 0.00 0.00 0.00 0.00 0.00 0.00 0.00 0.00 0.00 0.00 0.00 0.00 0.00 0.00 0.00 0.00
0.00 0.00 0.00 0.00 0.00 0.00 0.00 0.00 0.00 0.00 0.00 0.00 0.00 0.00 0.00 0.00 0.00 0.00 0.00 0.00 0.00 0.00 0.00 0.00 0.00 0.00 0.00 0.00 0.00 0.00 0.00 0.00 0.00 0.00 0.00 0.00 0.00 0.00 0.00 0.00 0.00 0.00 0.00
0.00 0.00 0.00 0.00 0.00 0.00 0.00 0.00 0.00 0.00 0.00 0.00 0.00 0.00 0.00 0.00 0.00 0.00 0.00 0.00 0.00 0.00 0.00 0.00 0.00 0.00 0.00 0.00 0.00 0.00 0.00 0.00 0.00 0.00 0.00 0.00 0.00 0.00 0.00 0.00 0.00 0.00 0.00
0.00 0.00 0.00 0.00 0.00 0.00 0.00 0.00 0.00 0.00 0.00 0.00 0.00 0.00 0.00 0.00 0.00 0.00 0.00 0.00 0.00 0.00 0.00 0.00 0.00 0.00 0.00 0.00 0.00 0.00 0.00 0.00 0.00 0.00 0.00 0.00 0.00 0.00 0.00 0.00 0.00 0.00 0.00
0.00 0.00 0.00 0.00 0.00 0.00 0.00 0.00 0.00 0.00 0.01 0.02 0.01 0.00 0.00 0.00 0.00 0.00 0.00 0.00 0.00 0.00 0.00 0.00 0.00 0.00 0.00 0.00 0.01 0.01 0.01 0.00 0.00 0.00 0.00 0.00 0.00 0.00 0.00 0.00 0.00 0.00 0.00
0.00 0.00 0.00 0.00 0.00 0.00 0.00 0.00 0.00 0.00 0.00 0.00 0.00 0.00 0.00 0.00 0.00 0.00 0.00 0.00 0.00 0.00 0.00 0.00 0.00 0.00 0.00 0.00 0.01 0.01 0.02 0.01 0.00 0.00 0.00 0.00 0.00 0.00 0.00 0.00 0.00 0.00 0.00
0.00 0.00 0.00 0.00 0.00 0.00 0.00 0.00 0.00 0.00 0.00 0.00 0.00 0.00 0.00 0.00 0.00 0.00 0.00 0.00 0.00 0.00 0.00 0.00 0.00 0.00 0.00 0.00 0.00 0.00 0.00 0.01 0.01 0.01 0.00 0.00 0.00 0.00 0.00 0.00 0.00 0.00 0.00
0.00 0.00 0.00 0.00 0.00 0.00 0.00 0.00 0.00 0.00 0.00 0.00 0.00 0.00 0.00 0.00 0.00 0.00 0.00 0.00 0.00 0.00 0.00 0.00 0.00 0.00 0.00 0.00 0.00 0.00 0.00 0.00 0.01 0.03 0.01 0.00 0.00 0.00 0.00 0.00 0.00 0.00 0.00
0.00 0.00 0.00 0.00 0.00 0.00 0.00 0.00 0.00 0.00 0.00 0.00 0.00 0.00 0.00 0.00 0.00 0.00 0.00 0.00 0.00 0.00 0.00 0.00 0.00 0.00 0.00 0.00 0.00 0.00 0.00 0.00 0.01 0.04 0.00 0.00 0.00 0.00 0.00 0.00 0.00 0.00 0.00
0.00 0.00 0.00 0.00 0.00 0.00 0.00 0.00 0.00 0.00 0.00 0.00 0.00 0.00 0.00 0.00 0.00 0.00 0.00 0.00 0.00 0.00 0.00 0.00 0.00 0.00 0.00 0.00 0.00 0.00 0.00 0.00 0.01 0.05 0.01 0.00 0.00 0.00 0.00 0.00 0.00 0.00 0.00
0.00 0.00 0.00 0.00 0.00 0.00 0.00 0.00 0.00 0.00 0.00 0.00 0.00 0.00 0.00 0.00 0.00 0.00 0.00 0.00 0.00 0.00 0.00 0.00 0.00 0.00 0.00 0.00 0.00 0.00 0.00 0.01 0.01 0.02 0.00 0.00 0.00 0.00 0.00 0.00 0.00 0.00 0.00
0.00 0.00 0.00 0.00 0.00 0.00 0.00 0.00 0.00 0.00 0.00 0.00 0.00 0.00 0.00 0.00 0.00 0.00 0.00 0.00 0.00 0.00 0.00 0.00 0.00 0.00 0.00 0.00 0.00 0.01 0.01 0.00 0.00 0.00 0.00 0.00 0.00 0.00 0.00 0.00 0.00 0.00 0.00
0.00 0.00 0.00 0.00 0.00 0.00 0.00 0.00 0.00 0.00 0.00 0.00 0.00 0.00 0.00 0.00 0.00 0.00 0.00 0.00 0.00 0.00 0.00 0.00 0.00 0.00 0.00 0.00 0.00 0.00 0.00 0.00 0.00 0.00 0.00 0.00 0.00 0.00 0.00 0.00 0.00 0.00 0.00
MSLP
1024.74 1024.29 1024.17 1024.30 1024.22 1024.15 1023.45 1022.79 1022.26 1021.47 1021.03 1020.58 1019.70 1018.73 1017.75 1016.54 1015.47 1014.41 1013.19 1012.46 1011.50 1010.42 1009.43 1008.86 1007.08 1006.46 1004.96 1004.33 1003.60 1003.08 1002.12 1002.02 1001.73 1001.33 1001.28 1000.91 1001.03 1000.74 1000.80 1001.11 1001.48 1001.77 1002.14
1024.95 1024.50 1024.69 1024.68 1024.70 1024.39 1023.83 1023.26 1022.75 1021.99 1021.60 1021.24 1020.57 1019.58 1018.50 1017.32 1016.49 1015.62 1014.72 1014.00 1012.90 1011.87 1010.90 1009.98 1008.56 1007.61 1006.47 1005.89 1005.28 1004.28 1003.91 1003.42 1002.71 1001.81 1001.46 1000.98 1001.08 1001.44 1001.93 1002.37 1001.54 1001.48 1001.05
1024.72 1024.78 1024.80 1024.79 1024.64 1024.33 1023.96 1023.58 1023.14 1022.65 1022.26 1021.73 1021.27 1020.44 1019.35 1018.31 1017.40 1017.04 1016.46 1015.16 1014.27 1013.67 1012.66 1010.94 1010.19 1008.97 1007.20 1006.42 1006.11 1005.34 1004.83 1004.46 1003.45 1002.84 1002.15 1002.10 1001.92 1002.63 1002.31 1002.50 1001.28 1001.49 1003.06
1024.12 1024.58 1024.79 1024.87 1024.56 1024.26 1024.00 1023.73 1023.40 1023.26 1022.87 1022.33 1021.96 1021.38 1020.39 1019.35 1018.58 1018.20 1017.53 1016.78 1015.93 1014.76 1013.58 1012.64 1011.66 1010.45 1008.91 1009.11 1007.25 1006.79 1006.64 1005.75 1005.17 1004.64 1004.33 1004.33 1004.79 1003.66 1003.83 1003.33 1003.14 1003.99 1001.94
1023.59 1023.83 1024.18 1024.50 1024.38 1024.17 1023.96 1023.72 1023.62 1023.66 1023.40 1022.99 1022.54 1022.13 1021.43 1020.35 1019.60 1019.09 1018.76 1018.30 1017.46 1016.60 1015.67 1014.58 1013.59 1012.15 1011.13 1010.70 1009.34 1009.01 1008.43 1008.04 1007.90 1007.67 1007.43 1007.67 1007.53 1007.00 1006.49 1005.15 1005.07 1004.87 1005.12
1023.74 1023.95 1023.99 1024.02 1024.14 1024.00 1023.79 1023.69 1023.71 1023.81 1023.85 1023.53 1022.91 1022.68 1022.15 1021.36 1020.27 1019.81 1019.59 1019.41 1018.96 1018.05 1017.31 1016.33 1015.14 1014.17 1013.30 1012.37 1011.59 1011.32 1011.05 1010.38 1010.13 1009.82 1009.99 1010.16 1010.07 1009.92 1008.83 1007.30 1005.54 1005.24 1006.25
1024.02 1024.20 1024.27 1024.33 1024.52 1024.27 1024.02 1023.91 1023.84 1023.91 1023.99 1023.82 1023.62 1023.13 1022.83 1022.22 1021.25 1020.26 1019.93 1019.96 1019.54 1019.05 1018.22 1017.44 1016.58 1015.90 1014.59 1013.73 1013.41 1013.12 1012.66 1012.27 1011.99 1011.88 1011.75 1011.80 1011.18 1010.84 1009.80 1008.77 1006.87 1007.21 1007.82
1024.78 1024.76 1024.84 1024.82 1024.84 1024.75 1024.50 1024.32 1024.21 1024.24 1024.19 1024.16 1024.07 1023.82 1023.48 1022.89 1022.20 1021.40 1020.72 1020.44 1020.25 1020.00 1019.37 1018.82 1018.18 1017.39 1016.66 1016.06 1015.33 1014.64 1013.97 1013.78 1013.55 1013.40 1013.46 1013.12 1012.44 1012.24 1011.08 1010.82 1009.80 1008.92 1009.52
1025.47 1025.75 1025.46 1025.51 1025.37 1025.12 1025.07 1024.87 1024.68 1024.68 1024.49 1024.46 1024.48 1024.39 1024.00 1023.53 1022.94 1022.32 1021.73 1021.29 1021.03 1020.82 1020.72 1020.08 1019.66 1019.14 1018.47 1017.77 1016.99 1016.34 1015.86 1015.62 1015.64 1015.32 1014.83 1014.34 1013.67 1012.97 1013.61 1011.94 1010.69 1010.19 1010.25
1025.49 1026.00 1026.08 1025.86 1025.77 1025.81 1025.52 1025.37 1025.24 1025.08 1024.85 1024.73 1024.84 1024.84 1024.69 1024.22 1023.47 1023.03 1022.66 1022.11 1021.86 1021.60 1021.28 1021.11 1020.37 1020.04 1019.50 1018.79 1018.42 1018.16 1017.65 1017.49 1016.92 1016.43 1015.91 1015.50 1014.59 1014.33 1014.09 1013.65 1012.96 1012.44 1011.54
1025.12 1025.41 1025.77 1025.66 1025.81 1025.90 1025.74 1025.58 1025.65 1025.53 1025.23 1025.01 1025.01 1025.12 1025.13 1024.82 1024.54 1023.83 1023.49 1023.10 1022.88 1022.60 1022.24 1021.80 1021.45 1021.13 1020.47 1020.05 1019.82 1019.56 1019.61 1019.24 1018.46 1017.74 1017.18 1016.62 1016.05 1016.02 1015.85 1014.95 1014.34 1013.78 1012.68
1024.96 1025.42 1025.67 1025.79 1025.81 1025.82 1025.89 1025.91 1025.90 1025.79 1025.68 1025.62 1025.57 1025.55 1025.63 1025.51 1025.18 1024.85 1024.36 1023.83 1023.45 1023.15 1022.91 1022.69 1022.31 1021.78 1021.46 1021.01 1021.08 1021.11 1020.62 1020.16 1019.72 1019.34 1018.87 1018.39 1017.80 1017.42 1017.17 1016.16 1015.40 1015.00 1014.98
1024.95 1025.35 1025.66 1025.84 1026.00 1026.01 1026.18 1026.61 1026.77 1026.53 1026.47 1026.42 1026.36 1026.37 1026.25 1026.15 1026.01 1025.57 1025.09 1024.64 1024.16 1023.95 1023.71 1023.07 1022.65 1022.44 1022.20 1021.96 1021.86 1021.91 1021.53 1021.29 1021.06 1020.77 1020.42 1020.12 1019.65 1019.28 1018.37 1017.30 1016.54 1015.91 1015.21
1025.05 1025.41 1025.66 1026.15 1026.11 1026.56 1026.80 1027.07 1027.53 1027.54 1027.41 1027.48 1027.51 1027.42 1027.28 1027.11 1026.72 1026.31 1025.86 1025.51 1025.03 1024.55 1024.31 1023.75 1023.36 1022.83 1022.78 1022.75 1022.75 1022.77 1022.79 1022.56 1022.39 1022.39 1022.10 1021.63 1020.94 1020.16 1019.37 1018.69 1018.18 1017.43 1016.88
1025.31 1025.64 1025.95 1026.20 1026.35 1026.53 1027.18 1027.51 1027.65 1028.14 1028.11 1028.08 1028.28 1028.26 1028.08 1027.78 1027.31 1026.75 1026.19 1025.58 1025.09 1024.58 1024.10 1023.91 1023.79 1023.46 1023.48 1023.50 1023.55 1023.59 1023.58 1023.50 1023.38 1023.14 1022.65 1022.28 1021.99 1021.41 1020.77 1020.24 1019.46 1018.85 1018.50
1025.72 1026.23 1026.70 1026.62 1026.68 1026.86 1027.01 1027.83 1028.07 1028.29 1028.36 1028.40 1028.51 1028.57 1028.62 1028.17 1027.61 1027.11 1026.57 1025.85 1025.17 1024.70 1024.48 1024.52 1024.45 1024.30 1024.14 1024.32 1024.38 1024.39 1024.31 1024.41 1024.25 1023.84 1023.54 1023.43 1023.16 1022.37 1021.86 1021.40 1020.77 1020.22 1019.76
1026.23 1026.62 1026.84 1027.10 1027.18 1027.27 1027.39 1027.56 1027.76 1028.42 1028.48 1028.58 1028.56 1028.66 1028.59 1028.56 1027.79 1027.31 1026.76 1026.08 1025.61 1025.46 1025.52 1025.49 1025.45 1025.29 1025.06 1024.85 1024.62 1024.50 1024.49 1024.41 1024.28 1024.14 1024.31 1024.19 1023.98 1023.35 1022.95 1022.60 1022.11 1021.67 1021.15
1027.16 1027.33 1027.25 1027.50 1027.73 1027.81 1027.79 1027.80 1027.93 1028.12 1028.22 1028.59 1028.82 1029.02 1028.82 1028.68 1028.07 1027.42 1027.16 1027.10 1026.89 1026.62 1026.65 1026.59 1026.55 1026.39 1026.10 1025.79 1025.42 1025.17 1024.84 1024.73 1024.62 1024.44 1024.39 1024.35 1024.32 1024.05 1023.84 1023.41 1022.94 1022.43 1021.65
1027.11 1027.67 1027.70 1027.70 1028.00 1028.09 1027.94 1027.96 1028.07 1028.29 1028.44 1028.54 1028.62 1029.03 1029.53 1029.10 1028.12 1027.90 1027.93 1028.14 1028.20 1028.07 1027.91 1027.75 1027.61 1027.46 1027.29 1026.95 1026.59 1026.20 1025.81 1025.39 1025.11 1025.07 1025.13 1025.12 1025.05 1024.90 1024.54 1023.99 1023.49 1023.01 1022.49
1027.73 1027.98 1028.01 1027.86 1027.97 1028.07 1028.13 1028.30 1028.40 1028.56 1028.71 1028.89 1029.29 1030.01 1030.09 1029.95 1029.13 1028.81 1028.79 1029.03 1029.20 1029.20 1029.09 1028.90 1028.73 1028.53 1028.25 1027.90 1027.57 1027.26 1026.81 1026.46 1026.07 1025.62 1025.61 1025.75 1025.75 1025.60 1025.18 1024.74 1024.31 1023.81 1023.11
1027.32 1027.84 1028.13 1027.91 1028.17 1028.45 1028.64 1028.68 1028.82 1028.96 1029.11 1029.35 1029.66 1030.24 1030.24 1030.26 1029.86 1029.68 1029.65 1029.88 1030.08 1030.10 1030.03 1029.90 1029.70 1029.42 1029.09 1028.77 1028.53 1028.29 1027.91 1027.40 1026.84 1026.20 1026.20 1026.13 1025.93 1025.89 1025.67 1025.44 1025.03 1024.49 1023.88
1027.40 1027.69 1028.03 1028.27 1028.41 1028.78 1029.15 1029.00 1029.19 1029.46 1029.62 1029.80 1029.94 1030.12 1030.26 1030.40 1030.45 1030.38 1030.39 1030.59 1030.78 1030.70 1030.61 1030.57 1030.41 1030.09 1029.70 1029.47 1029.34 1029.02 1028.55 1028.05 1027.51 1027.06 1026.59 1026.50 1026.47 1026.34 1026.00 1025.61 1025.33 1024.93 1024.54
1027.61 1027.82 1028.08 1028.44 1028.78 1029.23 1029.18 1029.29 1029.53 1029.90 1030.17 1030.25 1030.37 1030.52 1030.63 1030.79 1030.89 1030.89 1030.93 1031.00 1031.03 1031.14 1031.08 1031.00 1030.94 1030.54 1030.03 1029.92 1029.66 1029.41 1029.13 1028.55 1027.97 1027.43 1027.29 1027.12 1026.97 1026.76 1026.50 1026.20 1025.83 1025.54 1025.16
1027.90 1028.10 1028.29 1028.73 1029.37 1029.46 1029.68 1029.94 1029.95 1030.14 1030.45 1030.64 1030.79 1030.97 1031.08 1031.17 1031.25 1031.26 1031.30 1031.42 1031.48 1031.44 1031.47 1031.52 1031.14 1030.66 1030.32 1030.10 1029.88 1029.53 1029.04 1028.49 1027.83 1027.74 1027.84 1027.65 1027.63 1027.20 1026.82 1026.49 1026.23 1025.84 1025.37
1028.26 1028.56 1028.81 1029.07 1029.46 1029.79 1029.98 1030.11 1030.32 1030.57 1030.83 1031.08 1031.24 1031.38 1031.49 1031.60 1031.68 1031.71 1031.76 1031.81 1031.85 1032.17 1032.04 1031.61 1031.06 1030.85 1030.51 1030.32 1029.87 1029.37 1029.17 1028.86 1028.61 1028.51 1028.43 1028.19 1027.88 1027.43 1027.09 1026.74 1026.36 1025.82 1025.24
1028.60 1028.93 1029.24 1029.58 1029.86 1030.13 1030.32 1030.51 1030.73 1030.98 1031.27 1031.61 1031.79 1031.87 1032.02 1032.14 1032.16 1032.33 1032.31 1032.26 1032.63 1032.48 1031.89 1031.61 1031.10 1030.73 1030.36 1029.84 1029.37 1029.17 1029.00 1028.80 1028.68 1028.56 1028.44 1028.09 1027.57 1027.38 1027.07 1026.72 1026.30 1025.81 1025.15
Thickness
5406 5407 5407 5404 5402 5399 5399 5400 5400 5400 5398 5396 5400 5402 5406 5411 5412 5413 5416 5415 5419 5425 5431 5445 5469 5482 5504 5518 5532 5545 5562 5567 5577 5591 5594 5601 5606 5620 5632 5635 5631 5636 5639
5397 5399 5396 5395 5392 5391 5390 5390 5391 5391 5387 5384 5385 5390 5393 5398 5396 5395 5394 5394 5396 5397 5407 5423 5443 5462 5482 5494 5507 5520 5527 5538 5553 5574 5579 5591 5595 5600 5608 5607 5619 5630 5641
5390 5388 5388 5387 5386 5384 5383 5382 5382 5380 5378 5375 5372 5375 5382 5382 5382 5376 5373 5379 5381 5381 5391 5411 5425 5443 5465 5481 5488 5498 5508 5521 5535 5553 5567 5569 5578 5578 5590 5587 5606 5611 5587
5388 5382 5380 5379 5378 5377 5375 5373 5372 5369 5368 5369 5364 5361 5365 5369 5369 5364 5364 5366 5370 5375 5386 5398 5411 5427 5444 5449 5470 5480 5487 5500 5511 5520 5531 5535 5537 5556 5559 5563 5575 5566 5584
5386 5383 5379 5373 5371 5369 5367 5365 5363 5359 5357 5358 5359 5354 5353 5357 5357 5356 5354 5353 5357 5362 5369 5380 5391 5409 5422 5431 5446 5455 5465 5471 5476 5483 5489 5490 5496 5508 5518 5538 5550 5555 5549
5377 5374 5372 5370 5366 5363 5360 5358 5354 5350 5347 5348 5350 5349 5347 5347 5351 5350 5346 5344 5345 5350 5355 5365 5377 5389 5400 5413 5423 5430 5435 5443 5450 5458 5459 5463 5467 5471 5486 5508 5529 5539 5536
5368 5364 5361 5358 5352 5351 5350 5348 5345 5342 5340 5339 5339 5340 5340 5340 5343 5346 5344 5340 5341 5343 5349 5355 5363 5371 5384 5394 5401 5406 5414 5421 5427 5433 5438 5441 5452 5457 5472 5483 5503 5510 5512
5352 5351 5347 5344 5341 5338 5337 5335 5335 5333 5332 5331 5330 5330 5330 5332 5333 5336 5337 5335 5335 5336 5339 5343 5349 5356 5362 5369 5378 5386 5396 5400 5405 5412 5415 5421 5430 5435 5449 5454 5471 5482 5485
5337 5333 5334 5330 5328 5327 5325 5325 5325 5323 5323 5322 5321 5320 5321 5323 5325 5326 5327 5327 5327 5327 5327 5331 5333 5337 5344 5351 5360 5367 5374 5378 5379 5385 5392 5399 5408 5417 5415 5433 5449 5463 5469
5331 5324 5321 5321 5319 5316 5317 5316 5315 5314 5314 5314 5312 5310 5310 5312 5317 5319 5320 5321 5320 5320 5321 5320 5325 5328 5331 5336 5339 5343 5348 5353 5360 5367 5373 5379 5388 5395 5399 5407 5417 5429 5443
5328 5323 5318 5317 5313 5310 5310 5310 5306 5305 5306 5305 5304 5302 5301 5302 5303 5307 5309 5310 5310 5311 5311 5313 5314 5316 5320 5324 5325 5327 5326 5330 5339 5348 5355 5359 5368 5370 5373 5384 5394 5404 5418
5323 5317 5313 5310 5308 5306 5303 5301 5299 5297 5296 5295 5294 5292 5290 5291 5292 5293 5296 5299 5301 5302 5303 5302 5304 5308 5311 5314 5313 5312 5314 5319 5323 5328 5334 5336 5343 5347 5351 5362 5372 5379 5382
5316 5311 5307 5303 5300 5297 5294 5288 5285 5285 5284 5283 5282 5280 5279 5278 5278 5280 5283 5286 5289 5291 5291 5293 5296 5297 5300 5302 5303 5301 5305 5307 5308 5310 5314 5318 5322 5325 5333 5343 5351 5357 5365
5309 5304 5299 5293 5292 5286 5282 5278 5273 5270 5269 5267 5265 5264 5264 5264 5265 5266 5268 5271 5274 5277 5279 5283 5286 5288 5289 5288 5288 5289 5289 5291 5293 5293 5296 5299 5305 5311 5317 5323 5328 5335 5340
5300 5295 5290 5286 5283 5279 5272 5268 5265 5259 5257 5255 5251 5250 5248 5248 5251 5254 5257 5259 5263 5267 5270 5271 5272 5274 5275 5275 5274 5272 5272 5274 5275 5277 5281 5285 5287 5293 5298 5302 5309 5314 5317
5290 5283 5276 5276 5273 5270 5267 5258 5254 5251 5248 5245 5242 5240 5237 5238 5239 5241 5244 5247 5250 5253 5256 5256 5256 5258 5258 5255 5254 5255 5255 5254 5255 5258 5261 5261 5264 5270 5275 5279 5285 5289 5292
5279 5274 5270 5265 5262 5260 5257 5254 5251 5242 5239 5236 5233 5229 5229 5227 5229 5229 5231 5234 5236 5236 5235 5236 5236 5238 5239 5241 5242 5241 5241 5240 5241 5243 5241 5241 5242 5247 5250 5253 5256 5259 5263
5264 5261 5260 5255 5250 5247 5245 5243 5240 5236 5234 5229 5225 5219 5218 5216 5217 5219 5218 5217 5217 5217 5216 5216 5215 5215 5217 5219 5221 5223 5225 5224 5224 5226 5226 5225 5224 5227 5228 5229 5231 5233 5239
5258 5251 5248 5246 5240 5237 5235 5233 5230 5227 5223 5220 5216 5210 5205 5204 5207 5205 5203 5198 5196 5196 5195 5195 5195 5194 5193 5194 5195 5196 5198 5202 5203 5202 5200 5199 5198 5200 5202 5205 5208 5210 5214
5246 5241 5238 5237 5233 5230 5227 5223 5220 5216 5212 5208 5202 5192 5189 5188 5189 5187 5185 5181 5177 5175 5173 5173 5172 5171 5170 5171 5170 5170 5170 5170 5172 5176 5175 5170 5169 5170 5172 5173 5175 5178 5183
5243 5235 5230 5230 5224 5219 5215 5212 5207 5203 5199 5194 5189 5179 5176 5173 5172 5170 5168 5163 5158 5155 5152 5150 5148 5147 5146 5146 5144 5143 5142 5142 5143 5148 5147 5142 5141 5141 5140 5138 5138 5140 5144
5234 5229 5222 5217 5214 5207 5201 5199 5194 5189 5185 5180 5174 5170 5164 5160 5155 5152 5148 5143 5139 5135 5132 5129 5126 5125 5124 5121 5119 5116 5115 5114 5113 5115 5115 5110 5109 5107 5106 5106 5106 5107 5109
5224 5219 5213 5207 5201 5193 5190 5187 5181 5174 5168 5164 5159 5154 5149 5144 5138 5134 5129 5124 5119 5115 5110 5106 5103 5100 5099 5096 5093 5090 5088 5086 5085 5085 5083 5080 5077 5075 5071 5070 5069 5069 5069
5212 5207 5202 5195 5186 5182 5177 5171 5167 5162 5154 5149 5143 5137 5132 5126 5120 5115 5110 5104 5099 5094 5088 5083 5080 5077 5074 5070 5066 5063 5060 5058 5057 5053 5050 5046 5043 5042 5040 5038 5036 5034 5036
5200 5194 5189 5184 5177 5171 5165 5159 5153 5146 5139 5132 5125 5119 5113 5106 5100 5094 5088 5082 5076 5069 5064 5060 5056 5051 5048 5044 5042 5039 5035 5032 5028 5024 5021 5018 5016 5015 5013 5010 5009 5010 5010
5190 5183 5177 5170 5164 5156 5150 5143 5136 5129 5121 5113 5106 5099 5092 5085 5079 5071 5065 5059 5051 5045 5042 5038 5035 5032 5030 5028 5026 5022 5018 5014 5009 5005 5001 4998 4996 4993 4990 4987 4985 4985 4986